Location: McFarlands Corners
(41.4117°N, 81.3382°W)
Time: 05:07:23
(UTC+00:00)

A-11 Canister half - Pass Details

Date: 21 February 2026
Orbit: 1524 x 1683 km, 47.3° (Epoch: 14 March)

Event Time Altitude Azimuth Distance (km) Brightness Sun altitude
Rises 04:30:08 0° 295° (WNW) 4,678 12.0 -55.6°
Reaches altitude 10° 04:33:33 10° 286° (WNW) 3,699 11.2 -56.0°
Enters shadow 04:34:25 13° 283° (WNW) 3,473 11.0 -56.0°
